• In Czech Republic
  • List of Countries
  • For 7 days
  • Water Temperature
  • Satellite Maps
  • Weather Map
  • Weather Widgets
  • user-avatar
    Login

    Hourly Weather Biskira

    Today, 29 June, Thursday

    Time Temperature Precipitation Wind Pressure Humidity
    00:00 +36°C° 0 mm 7 mps 748 mmHg 19%
    01:00 +35°C° 0 mm 7 mps 748 mmHg 20%
    02:00 +35°C° 0 mm 6 mps 748 mmHg 21%
    03:00 +34°C° 0 mm 6 mps 748 mmHg 21%
    04:00 +34°C° 0 mm 6 mps 748 mmHg 21%
    05:00 +34°C° 0 mm 6 mps 748 mmHg 21%
    06:00 +34°C° 0 mm 5 mps 748 mmHg 21%
    07:00 +35°C° 0 mm 5 mps 748 mmHg 18%
    08:00 +37°C° 0 mm 5 mps 748 mmHg 15%
    09:00 +40°C° 0 mm 5 mps 749 mmHg 13%
    10:00 +41°C° 0 mm 4 mps 748 mmHg 11%
    11:00 +42°C° 0 mm 4 mps 748 mmHg 10%
    12:00 +43°C° 0 mm 4 mps 748 mmHg 9%
    13:00 +43°C° 0 mm 3 mps 748 mmHg 9%
    14:00 +44°C° 0 mm 3 mps 747 mmHg 9%
    15:00 +44°C° 0 mm 3 mps 747 mmHg 9%
    16:00 +44°C° 0 mm 3 mps 746 mmHg 9%
    17:00 +44°C° 0 mm 3 mps 746 mmHg 9%
    18:00 +44°C° 0 mm 4 mps 746 mmHg 9%
    19:00 +42°C° 0 mm 4 mps 746 mmHg 10%
    20:00 +41°C° 0 mm 4 mps 747 mmHg 11%
    21:00 +40°C° 0 mm 4 mps 747 mmHg 12%
    22:00 +40°C° 0 mm 4 mps 747 mmHg 12%
    23:00 +38°C° 0 mm 4 mps 747 mmHg 13%

    Tomorrow, 30 June, Friday

    Time Temperature Precipitation Wind Pressure Humidity
    00:00 +39°C° 0 mm 5 mps 747 mmHg 13%
    01:00 +37°C° 0 mm 4 mps 747 mmHg 15%
    02:00 +36°C° 0 mm 3 mps 746 mmHg 16%
    03:00 +35°C° 0 mm 3 mps 746 mmHg 18%
    04:00 +35°C° 0 mm 3 mps 746 mmHg 20%
    05:00 +35°C° 0 mm 4 mps 747 mmHg 22%
    06:00 +35°C° 0 mm 4 mps 747 mmHg 24%
    07:00 +36°C° 0 mm 5 mps 747 mmHg 23%
    08:00 +37°C° 0 mm 5 mps 748 mmHg 21%
    09:00 +39°C° 0 mm 5 mps 748 mmHg 19%
    10:00 +40°C° 0 mm 6 mps 748 mmHg 18%
    11:00 +41°C° 0 mm 6 mps 748 mmHg 17%
    12:00 +42°C° 0 mm 6 mps 748 mmHg 16%
    13:00 +41°C° 0.1 mm 7 mps 747 mmHg 17%
    14:00 +40°C° 0.1 mm 7 mps 747 mmHg 18%
    15:00 +40°C° 0.1 mm 8 mps 747 mmHg 19%
    16:00 +39°C° 0.6 mm 7 mps 747 mmHg 20%
    17:00 +39°C° 0.6 mm 7 mps 747 mmHg 21%
    18:00 +38°C° 0.6 mm 6 mps 747 mmHg 22%
    19:00 +36°C° 0.3 mm 7 mps 748 mmHg 27%
    20:00 +35°C° 0.3 mm 7 mps 748 mmHg 31%
    21:00 +34°C° 0.3 mm 7 mps 749 mmHg 36%
    22:00 +33°C° 0 mm 7 mps 749 mmHg 40%
    23:00 +32°C° 0 mm 7 mps 749 mmHg 44%

    Day after tomorrow, 1 July, Saturday

    Time Temperature Precipitation Wind Pressure Humidity
    00:00 +30°C° 0 mm 7 mps 749 mmHg 48%
    01:00 +30°C° 0 mm 7 mps 750 mmHg 49%
    02:00 +29°C° 0 mm 7 mps 750 mmHg 50%
    03:00 +29°C° 0 mm 6 mps 750 mmHg 50%
    04:00 +29°C° 0 mm 6 mps 750 mmHg 49%
    05:00 +29°C° 0 mm 6 mps 750 mmHg 48%
    06:00 +29°C° 0 mm 6 mps 750 mmHg 46%
    07:00 +30°C° 0 mm 5 mps 751 mmHg 39%
    08:00 +33°C° 0 mm 5 mps 751 mmHg 32%
    09:00 +35°C° 0 mm 4 mps 751 mmHg 25%
    10:00 +36°C° 0 mm 4 mps 751 mmHg 22%
    11:00 +37°C° 0 mm 4 mps 751 mmHg 18%
    12:00 +38°C° 0 mm 4 mps 751 mmHg 15%
    13:00 +40°C° 0 mm 4 mps 751 mmHg 14%
    14:00 +41°C° 0 mm 4 mps 750 mmHg 13%
    15:00 +41°C° 0 mm 4 mps 750 mmHg 12%
    16:00 +41°C° 0 mm 4 mps 750 mmHg 12%
    17:00 +40°C° 0 mm 5 mps 750 mmHg 13%
    18:00 +40°C° 0 mm 5 mps 750 mmHg 14%
    19:00 +38°C° 0 mm 6 mps 751 mmHg 19%
    20:00 +36°C° 0 mm 6 mps 752 mmHg 23%
    21:00 +34°C° 0 mm 7 mps 753 mmHg 28%
    22:00 +33°C° 0 mm 7 mps 753 mmHg 32%
    23:00 +32°C° 0 mm 6 mps 753 mmHg 36%

    2 July, Sunday

    Time Temperature Precipitation Wind Pressure Humidity
    00:00 +30°C° 0 mm 6 mps 754 mmHg 39%
    01:00 +29°C° 0 mm 5 mps 754 mmHg 39%
    02:00 +29°C° 0 mm 4 mps 754 mmHg 39%
    03:00 +29°C° 0 mm 3 mps 754 mmHg 39%
    04:00 +28°C° 0 mm 3 mps 754 mmHg 38%
    05:00 +28°C° 0 mm 3 mps 754 mmHg 37%
    06:00 +28°C° 0 mm 3 mps 754 mmHg 36%
    07:00 +29°C° 0 mm 3 mps 755 mmHg 33%
    08:00 +31°C° 0 mm 3 mps 755 mmHg 29%
    09:00 +33°C° 0 mm 3 mps 755 mmHg 25%
    10:00 +34°C° 0 mm 3 mps 755 mmHg 22%
    11:00 +35°C° 0 mm 3 mps 754 mmHg 18%
    12:00 +37°C° 0 mm 3 mps 754 mmHg 15%
    13:00 +37°C° 0 mm 3 mps 754 mmHg 14%
    14:00 +38°C° 0 mm 3 mps 753 mmHg 12%
    15:00 +40°C° 0 mm 4 mps 753 mmHg 11%
    16:00 +40°C° 0 mm 4 mps 753 mmHg 11%
    17:00 +38°C° 0 mm 4 mps 753 mmHg 12%
    18:00 +38°C° 0 mm 4 mps 753 mmHg 12%
    19:00 +37°C° 0 mm 4 mps 754 mmHg 16%
    20:00 +35°C° 0 mm 5 mps 754 mmHg 21%
    21:00 +34°C° 0 mm 5 mps 755 mmHg 25%
    22:00 +33°C° 0 mm 5 mps 755 mmHg 30%
    23:00 +30°C° 0 mm 5 mps 755 mmHg 36%

    3 July, Monday

    Time Temperature Precipitation Wind Pressure Humidity
    00:00 +29°C° 0 mm 5 mps 755 mmHg 41%
    01:00 +29°C° 0 mm 4 mps 755 mmHg 42%
    02:00 +28°C° 0 mm 4 mps 755 mmHg 43%
    03:00 +28°C° 0 mm 3 mps 755 mmHg 44%
    04:00 +28°C° 0 mm 3 mps 755 mmHg 43%
    05:00 +28°C° 0 mm 3 mps 755 mmHg 42%
    06:00 +28°C° 0 mm 2 mps 756 mmHg 41%
    07:00 +29°C° 0 mm 3 mps 756 mmHg 39%
    08:00 +30°C° 0 mm 3 mps 756 mmHg 37%
    09:00 +31°C° 0 mm 3 mps 756 mmHg 35%
    10:00 +33°C° 0 mm 3 mps 755 mmHg 33%
    11:00 +34°C° 0 mm 2 mps 755 mmHg 30%
    12:00 +35°C° 0 mm 2 mps 755 mmHg 28%
    13:00 +36°C° 0 mm 2 mps 754 mmHg 26%
    14:00 +37°C° 0 mm 2 mps 753 mmHg 23%
    15:00 +38°C° 0 mm 2 mps 753 mmHg 21%
    16:00 +38°C° 0 mm 2 mps 753 mmHg 21%
    17:00 +38°C° 0 mm 2 mps 753 mmHg 21%
    18:00 +38°C° 0 mm 2 mps 753 mmHg 20%
    19:00 +37°C° 0 mm 2 mps 753 mmHg 23%
    20:00 +36°C° 0 mm 2 mps 753 mmHg 26%
    21:00 +35°C° 0 mm 2 mps 753 mmHg 29%
    22:00 +35°C° 0 mm 2 mps 753 mmHg 30%
    23:00 +34°C° 0 mm 2 mps 753 mmHg 31%

    4 July, Tuesday

    Time Temperature Precipitation Wind Pressure Humidity
    00:00 +34°C° 0 mm 2 mps 753 mmHg 33%
    01:00 +32°C° 0 mm 2 mps 753 mmHg 34%
    02:00 +32°C° 0 mm 2 mps 753 mmHg 35%
    03:00 +31°C° 0 mm 2 mps 753 mmHg 36%
    04:00 +31°C° 0 mm 3 mps 753 mmHg 37%
    05:00 +32°C° 0 mm 4 mps 753 mmHg 38%
    06:00 +32°C° 0 mm 5 mps 753 mmHg 39%
    07:00 +33°C° 0 mm 5 mps 753 mmHg 36%
    08:00 +34°C° 0 mm 5 mps 753 mmHg 34%
    09:00 +35°C° 0 mm 5 mps 753 mmHg 32%
    10:00 +36°C° 0 mm 5 mps 753 mmHg 30%
    11:00 +37°C° 0 mm 4 mps 752 mmHg 28%
    12:00 +38°C° 0 mm 4 mps 752 mmHg 25%
    13:00 +40°C° 0 mm 4 mps 751 mmHg 24%
    14:00 +41°C° 0 mm 4 mps 751 mmHg 23%
    15:00 +42°C° 0 mm 3 mps 751 mmHg 21%
    16:00 +41°C° 0 mm 4 mps 750 mmHg 22%
    17:00 +41°C° 0 mm 4 mps 750 mmHg 22%
    18:00 +41°C° 0 mm 4 mps 750 mmHg 22%
    19:00 +40°C° 0 mm 4 mps 750 mmHg 23%
    20:00 +38°C° 0 mm 3 mps 751 mmHg 25%
    21:00 +37°C° 0 mm 3 mps 751 mmHg 26%
    22:00 +37°C° 0 mm 3 mps 751 mmHg 27%
    23:00 +36°C° 0 mm 3 mps 751 mmHg 28%
    Show more